Location: Maiden
(35.5760°N, 81.2120°W)
Time: 17:27:54
(UTC-05:00)

Envisat - Visible Passes

Search period start: 16 November 2018 00:00
Search period end: 26 November 2018 00:00
Orbit: 764 x 766 km, 98.2° (Epoch: 16 November)

Date Brightness Start Highest point End Pass type
(mag) Time Alt. Az. Time Alt. Az. Time Alt. Az.
16 Nov 4.3 18:16:53 15° E 18:18:44 19° ENE 18:22:11 10° NNE visible
16 Nov 3.9 19:52:32 10° S 19:57:22 45° W 20:02:14 10° NNW visible
17 Nov 2.8 19:15:34 10° SSE 19:20:37 76° ENE 19:25:42 10° N visible
18 Nov 3.6 18:43:09 30° E 18:44:03 32° ENE 18:48:32 10° N visible
18 Nov 5.0 20:18:56 10° SSW 20:23:22 25° W 20:27:10 10° NW visible
19 Nov 4.5 18:06:08 13° E 18:07:41 15° ENE 18:10:24 10° NNE visible
19 Nov 3.5 19:41:10 10° S 19:46:21 58° W 19:51:11 10° NNW visible
20 Nov 2.9 19:04:29 10° SSE 19:09:27 59° ENE 19:14:27 10° N visible
20 Nov 5.8 20:49:33 13° W 20:49:33 13° W 20:51:12 10° WNW visible
21 Nov 3.9 18:32:19 25° E 18:32:57 26° ENE 18:37:05 10° NNE visible
21 Nov 4.7 20:07:18 10° SSW 20:12:32 30° W 20:16:18 10° NW visible
22 Nov 4.7 17:55:16 10° ENE 17:56:39 11° ENE 17:58:10 10° NE visible
22 Nov 3.1 19:29:54 10° S 19:35:29 68° NW 19:40:03 10° NNW visible
23 Nov 3.2 18:53:30 10° SE 18:58:25 45° ENE 19:03:09 10° N visible
23 Nov 5.6 20:34:13 10° SW 20:38:37 16° WNW 20:40:50 10° NW visible
24 Nov 4.2 18:21:20 20° ENE 18:21:51 20° ENE 18:25:32 10° NNE visible
24 Nov 4.3 19:55:48 10° SSW 20:01:33 37° WNW 20:05:20 10° NNW visible
25 Nov 3.0 19:18:42 10° SSE 19:24:27 68° N 19:28:52 10° N visible
